GFSNIL_prec_precacc24_009.txt.gz
Total_Precipitation_Accumulation
0.00 0.00 0.00 0.00 0.00 0.00 0.00 0.00 0.00 0.00 0.00 0.00 0.00 0.00 0.00 0.00 0.00 0.00 0.00 0.01 0.01 0.00
0.00 0.00 0.00 0.00 0.00 0.00 0.00 0.00 0.00 0.00 0.00 0.00 0.00 0.00 0.00 0.00 0.00 0.00 0.00 0.00 0.01 0.00
0.00 0.00 0.00 0.00 0.00 0.00 0.00 0.00 0.00 0.00 0.00 0.00 0.00 0.00 0.00 0.00 0.00 0.00 0.00 0.00 0.00 0.00
0.00 0.00 0.00 0.00 0.00 0.00 0.00 0.00 0.00 0.00 0.00 0.00 0.00 0.00 0.00 0.00 0.00 0.00 0.00 0.00 0.00 0.00
0.00 0.00 0.00 0.01 0.01 0.00 0.00 0.00 0.00 0.00 0.00 0.00 0.00 0.00 0.00 0.00 0.00 0.00 0.00 0.00 0.00 0.00
0.00 0.00 0.00 0.01 0.02 0.01 0.00 0.00 0.00 0.00 0.00 0.00 0.00 0.00 0.00 0.00 0.00 0.00 0.00 0.00 0.00 0.00
0.00 0.00 0.03 0.09 0.06 0.01 0.01 0.01 0.02 0.02 0.01 0.00 0.00 0.00 0.00 0.00 0.00 0.00 0.00 0.00 0.00 0.02
0.00 0.04 0.17 0.27 0.34 0.23 0.16 0.10 0.04 0.02 0.00 0.00 0.00 0.00 0.00 0.00 0.00 0.00 0.00 0.00 0.02 0.01
0.00 0.04 0.14 0.37 0.73 0.41 0.23 0.16 0.15 0.09 0.03 0.00 0.00 0.00 0.00 0.00 0.00 0.00 0.00 0.02 0.06 0.04
0.00 0.07 0.13 0.15 0.22 0.26 0.33 0.31 0.13 0.04 0.02 0.00 0.01 0.01 0.00 0.00 0.00 0.00 0.03 0.06 0.07 0.06
0.00 0.04 0.10 0.12 0.13 0.12 0.10 0.05 0.04 0.04 0.03 0.01 0.02 0.01 0.01 0.03 0.01 0.04 0.03 0.06 0.08 0.08
0.00 0.01 0.05 0.06 0.05 0.05 0.01 0.00 0.01 0.01 0.01 0.02 0.03 0.03 0.06 0.09 0.02 0.02 0.05 0.06 0.06 0.06
0.01 0.01 0.00 0.00 0.02 0.02 0.02 0.01 0.01 0.02 0.02 0.02 0.03 0.10 0.11 0.13 0.08 0.07 0.08 0.07 0.04 0.05
0.02 0.01 0.01 0.01 0.02 0.02 0.03 0.02 0.01 0.01 0.01 0.01 0.04 0.13 0.08 0.07 0.07 0.04 0.02 0.03 0.04 0.03

GFSNIL_prec_precacc24_015.txt.gz
Total_Precipitation_Accumulation
0.00 0.00 0.00 0.00 0.00 0.00 0.00 0.00 0.00 0.00 0.00 0.00 0.00 0.00 0.00 0.00 0.00 0.00 0.00 0.01 0.01 0.00
0.00 0.00 0.00 0.00 0.00 0.00 0.00 0.00 0.00 0.00 0.00 0.00 0.00 0.00 0.00 0.00 0.00 0.00 0.00 0.00 0.01 0.00
0.00 0.00 0.00 0.00 0.00 0.00 0.00 0.00 0.00 0.00 0.00 0.00 0.00 0.00 0.00 0.00 0.00 0.00 0.00 0.00 0.00 0.00
0.00 0.00 0.00 0.00 0.00 0.00 0.00 0.00 0.00 0.00 0.00 0.00 0.00 0.00 0.00 0.00 0.00 0.00 0.00 0.00 0.00 0.00
0.00 0.00 0.00 0.01 0.01 0.00 0.00 0.00 0.00 0.00 0.00 0.00 0.00 0.00 0.00 0.00 0.00 0.00 0.00 0.00 0.00 0.00
0.00 0.00 0.00 0.01 0.02 0.01 0.00 0.00 0.00 0.00 0.00 0.00 0.00 0.00 0.00 0.00 0.00 0.00 0.00 0.00 0.00 0.00
0.00 0.00 0.03 0.09 0.06 0.01 0.01 0.01 0.02 0.02 0.01 0.00 0.00 0.00 0.00 0.00 0.00 0.00 0.00 0.00 0.00 0.02
0.00 0.04 0.17 0.27 0.34 0.23 0.16 0.10 0.04 0.02 0.00 0.00 0.00 0.01 0.00 0.00 0.00 0.00 0.00 0.00 0.02 0.01
0.00 0.04 0.14 0.37 0.73 0.41 0.23 0.16 0.15 0.09 0.04 0.02 0.02 0.03 0.00 0.01 0.00 0.00 0.00 0.03 0.06 0.04
0.00 0.07 0.13 0.15 0.22 0.26 0.33 0.31 0.14 0.05 0.03 0.03 0.07 0.20 0.09 0.03 0.00 0.00 0.03 0.07 0.09 0.07
0.00 0.04 0.10 0.12 0.13 0.12 0.10 0.05 0.05 0.09 0.13 0.09 0.10 0.11 0.09 0.06 0.01 0.04 0.05 0.09 0.13 0.12
0.00 0.01 0.05 0.06 0.05 0.05 0.02 0.02 0.04 0.09 0.09 0.12 0.10 0.17 0.15 0.12 0.03 0.03 0.06 0.08 0.10 0.15
0.01 0.01 0.00 0.00 0.02 0.06 0.12 0.13 0.07 0.04 0.05 0.07 0.09 0.16 0.13 0.13 0.09 0.08 0.11 0.12 0.12 0.13
0.02 0.01 0.01 0.05 0.16 0.21 0.12 0.04 0.02 0.02 0.02 0.03 0.10 0.20 0.09 0.08 0.09 0.08 0.10 0.14 0.20 0.20

GFSNIL_prec_precacc24_021.txt.gz
Total_Precipitation_Accumulation
0.00 0.00 0.00 0.00 0.00 0.00 0.00 0.00 0.00 0.00 0.00 0.00 0.00 0.00 0.00 0.00 0.00 0.00 0.00 0.01 0.01 0.00
0.00 0.00 0.00 0.00 0.00 0.00 0.00 0.00 0.00 0.00 0.00 0.00 0.00 0.00 0.00 0.00 0.00 0.00 0.00 0.00 0.01 0.00
0.00 0.00 0.00 0.00 0.00 0.00 0.00 0.00 0.00 0.00 0.00 0.00 0.00 0.00 0.00 0.00 0.00 0.00 0.00 0.00 0.00 0.00
0.00 0.00 0.00 0.00 0.00 0.00 0.00 0.00 0.00 0.00 0.00 0.00 0.00 0.00 0.00 0.00 0.00 0.00 0.00 0.00 0.00 0.00
0.00 0.00 0.00 0.01 0.01 0.00 0.00 0.00 0.00 0.00 0.00 0.00 0.00 0.00 0.00 0.00 0.00 0.00 0.00 0.00 0.00 0.00
0.00 0.00 0.00 0.01 0.02 0.01 0.00 0.00 0.00 0.00 0.00 0.00 0.00 0.00 0.00 0.00 0.00 0.00 0.00 0.00 0.00 0.00
0.00 0.00 0.03 0.09 0.06 0.01 0.01 0.01 0.02 0.02 0.01 0.00 0.00 0.00 0.01 0.01 0.01 0.01 0.01 0.03 0.02 0.02
0.00 0.04 0.17 0.27 0.34 0.23 0.16 0.10 0.04 0.02 0.00 0.00 0.00 0.01 0.00 0.02 0.03 0.09 0.07 0.05 0.07 0.04
0.00 0.04 0.14 0.37 0.73 0.41 0.23 0.16 0.15 0.09 0.04 0.02 0.02 0.03 0.01 0.03 0.14 0.16 0.17 0.12 0.10 0.08
0.00 0.07 0.13 0.15 0.22 0.26 0.33 0.31 0.14 0.05 0.03 0.03 0.08 0.27 0.13 0.18 0.15 0.18 0.15 0.12 0.12 0.09
0.00 0.04 0.10 0.12 0.13 0.12 0.10 0.05 0.05 0.10 0.16 0.15 0.15 0.17 0.15 0.12 0.09 0.10 0.08 0.13 0.15 0.12
0.00 0.01 0.05 0.06 0.05 0.05 0.02 0.02 0.05 0.24 0.39 0.25 0.19 0.19 0.17 0.16 0.07 0.08 0.14 0.17 0.11 0.16
0.01 0.01 0.00 0.00 0.02 0.06 0.13 0.17 0.10 0.09 0.13 0.15 0.18 0.23 0.16 0.19 0.14 0.14 0.13 0.13 0.12 0.14
0.02 0.01 0.01 0.05 0.17 0.24 0.24 0.11 0.03 0.07 0.29 0.27 0.19 0.26 0.15 0.15 0.12 0.11 0.11 0.14 0.20 0.20

GFSNIL_prec_precacc24_027.txt.gz
Total_Precipitation_Accumulation
0.00 0.00 0.00 0.00 0.00 0.00 0.00 0.00 0.00 0.00 0.00 0.00 0.00 0.00 0.00 0.00 0.00 0.00 0.00 0.00 0.00 0.00
0.00 0.00 0.00 0.00 0.00 0.00 0.00 0.00 0.00 0.00 0.00 0.00 0.00 0.00 0.00 0.00 0.00 0.00 0.00 0.00 0.00 0.00
0.00 0.00 0.00 0.00 0.00 0.00 0.00 0.00 0.00 0.00 0.00 0.00 0.00 0.00 0.00 0.00 0.00 0.00 0.00 0.00 0.00 0.00
0.00 0.00 0.00 0.00 0.00 0.00 0.00 0.00 0.00 0.00 0.00 0.00 0.00 0.00 0.00 0.00 0.00 0.00 0.00 0.00 0.00 0.00
0.00 0.00 0.00 0.00 0.00 0.00 0.00 0.00 0.00 0.00 0.00 0.00 0.00 0.00 0.00 0.00 0.00 0.00 0.00 0.00 0.00 0.00
0.00 0.00 0.00 0.00 0.01 0.01 0.00 0.00 0.00 0.00 0.00 0.00 0.00 0.00 0.00 0.00 0.00 0.00 0.00 0.00 0.00 0.00
0.00 0.00 0.00 0.00 0.01 0.00 0.00 0.01 0.02 0.02 0.01 0.00 0.00 0.00 0.01 0.01 0.01 0.01 0.02 0.05 0.07 0.03
0.00 0.00 0.00 0.01 0.04 0.01 0.02 0.04 0.04 0.02 0.00 0.00 0.00 0.01 0.00 0.02 0.03 0.09 0.10 0.10 0.11 0.08
0.00 0.00 0.01 0.04 0.06 0.07 0.08 0.11 0.15 0.09 0.04 0.02 0.02 0.03 0.01 0.03 0.14 0.16 0.20 0.16 0.12 0.12
0.00 0.00 0.00 0.00 0.01 0.09 0.16 0.22 0.12 0.05 0.03 0.03 0.08 0.27 0.13 0.18 0.15 0.18 0.19 0.15 0.15 0.13
0.00 0.00 0.00 0.00 0.01 0.01 0.04 0.04 0.05 0.10 0.16 0.15 0.15 0.17 0.14 0.09 0.07 0.07 0.10 0.17 0.16 0.13
0.00 0.00 0.00 0.00 0.00 0.01 0.01 0.02 0.05 0.24 0.39 0.24 0.18 0.18 0.13 0.10 0.05 0.07 0.13 0.19 0.14 0.16
0.00 0.00 0.00 0.00 0.01 0.04 0.12 0.17 0.09 0.07 0.12 0.14 0.16 0.16 0.07 0.08 0.05 0.07 0.11 0.15 0.13 0.15
0.00 0.00 0.00 0.05 0.16 0.22 0.22 0.10 0.03 0.06 0.29 0.27 0.16 0.18 0.10 0.09 0.06 0.08 0.10 0.15 0.20 0.20

GFSNIL_prec_precacc24_030.txt.gz
Total_Precipitation_Accumulation
0.00 0.00 0.00 0.00 0.00 0.00 0.00 0.00 0.00 0.00 0.00 0.00 0.00 0.00 0.00 0.00 0.00 0.00 0.00 0.00 0.00 0.00
0.00 0.00 0.00 0.00 0.00 0.00 0.00 0.00 0.00 0.00 0.00 0.00 0.00 0.00 0.00 0.00 0.00 0.00 0.00 0.00 0.00 0.00
0.00 0.00 0.00 0.00 0.00 0.00 0.00 0.00 0.00 0.00 0.00 0.00 0.00 0.00 0.00 0.00 0.00 0.00 0.00 0.00 0.00 0.00
0.00 0.00 0.00 0.00 0.00 0.00 0.00 0.00 0.00 0.00 0.00 0.00 0.00 0.00 0.00 0.00 0.00 0.00 0.00 0.00 0.00 0.00
0.00 0.00 0.00 0.00 0.00 0.00 0.00 0.00 0.00 0.00 0.00 0.00 0.00 0.00 0.00 0.00 0.00 0.00 0.00 0.00 0.00 0.00
0.00 0.00 0.00 0.00 0.00 0.00 0.00 0.00 0.00 0.00 0.00 0.00 0.00 0.00 0.00 0.00 0.00 0.00 0.00 0.00 0.00 0.00
0.00 0.00 0.00 0.00 0.00 0.00 0.00 0.00 0.00 0.00 0.00 0.00 0.00 0.00 0.01 0.01 0.01 0.01 0.02 0.05 0.07 0.02
0.00 0.00 0.00 0.00 0.00 0.00 0.00 0.00 0.00 0.00 0.00 0.00 0.00 0.01 0.00 0.02 0.03 0.09 0.10 0.10 0.11 0.08
0.00 0.00 0.00 0.00 0.00 0.00 0.01 0.02 0.04 0.05 0.03 0.02 0.02 0.03 0.01 0.03 0.14 0.16 0.20 0.15 0.09 0.10
0.00 0.00 0.00 0.00 0.00 0.00 0.03 0.09 0.09 0.04 0.03 0.03 0.08 0.27 0.13 0.18 0.15 0.18 0.17 0.10 0.10 0.07
0.00 0.00 0.00 0.00 0.00 0.00 0.00 0.01 0.04 0.09 0.16 0.15 0.14 0.16 0.14 0.09 0.07 0.06 0.08 0.12 0.10 0.06
0.00 0.00 0.00 0.00 0.00 0.00 0.00 0.02 0.05 0.24 0.39 0.23 0.16 0.16 0.11 0.08 0.05 0.07 0.11 0.15 0.09 0.12
0.00 0.00 0.00 0.00 0.00 0.04 0.12 0.16 0.09 0.07 0.12 0.14 0.15 0.15 0.07 0.08 0.05 0.07 0.08 0.11 0.11 0.12
0.00 0.00 0.00 0.04 0.16 0.22 0.22 0.09 0.03 0.06 0.28 0.27 0.16 0.16 0.09 0.09 0.06 0.08 0.10 0.13 0.17 0.19

GFSNIL_prec_precacc24_033.txt.gz
Total_Precipitation_Accumulation
0.00 0.00 0.00 0.00 0.00 0.00 0.00 0.00 0.00 0.00 0.00 0.00 0.00 0.00 0.00 0.00 0.00 0.00 0.00 0.00 0.00 0.00
0.00 0.00 0.00 0.00 0.00 0.00 0.00 0.00 0.00 0.00 0.00 0.00 0.00 0.00 0.00 0.00 0.00 0.00 0.00 0.00 0.00 0.00
0.00 0.00 0.00 0.00 0.00 0.00 0.00 0.00 0.00 0.00 0.00 0.00 0.00 0.00 0.00 0.00 0.00 0.00 0.00 0.00 0.00 0.00
0.00 0.00 0.00 0.00 0.00 0.00 0.00 0.00 0.00 0.00 0.00 0.00 0.00 0.00 0.00 0.00 0.00 0.00 0.00 0.00 0.00 0.00
0.00 0.00 0.00 0.00 0.00 0.00 0.00 0.00 0.00 0.00 0.00 0.00 0.00 0.00 0.00 0.00 0.00 0.00 0.00 0.00 0.00 0.00
0.00 0.00 0.00 0.00 0.00 0.00 0.00 0.00 0.00 0.00 0.00 0.00 0.00 0.00 0.00 0.00 0.00 0.00 0.00 0.00 0.00 0.00
0.00 0.00 0.00 0.00 0.00 0.00 0.00 0.00 0.00 0.00 0.00 0.00 0.00 0.00 0.01 0.01 0.01 0.01 0.02 0.05 0.07 0.02
0.00 0.00 0.00 0.00 0.00 0.00 0.00 0.00 0.00 0.00 0.00 0.00 0.00 0.01 0.00 0.02 0.03 0.09 0.10 0.10 0.11 0.08
0.00 0.00 0.00 0.00 0.00 0.00 0.00 0.01 0.01 0.00 0.00 0.01 0.02 0.03 0.01 0.03 0.14 0.16 0.20 0.14 0.08 0.09
0.00 0.00 0.00 0.00 0.00 0.00 0.00 0.01 0.00 0.01 0.01 0.03 0.06 0.26 0.13 0.18 0.15 0.18 0.16 0.08 0.08 0.06
0.00 0.00 0.00 0.00 0.00 0.00 0.00 0.00 0.01 0.06 0.14 0.13 0.13 0.15 0.14 0.09 0.07 0.06 0.08 0.12 0.09 0.05
0.00 0.00 0.00 0.00 0.00 0.00 0.00 0.02 0.04 0.23 0.38 0.23 0.16 0.16 0.11 0.07 0.05 0.07 0.11 0.14 0.08 0.11
0.00 0.00 0.00 0.00 0.00 0.04 0.11 0.16 0.09 0.07 0.11 0.13 0.15 0.13 0.05 0.06 0.05 0.06 0.06 0.09 0.09 0.09
0.00 0.00 0.00 0.04 0.15 0.22 0.21 0.09 0.02 0.06 0.28 0.26 0.16 0.13 0.07 0.08 0.05 0.07 0.09 0.12 0.16 0.17

GFSNIL_prec_precacc24_036.txt.gz
Total_Precipitation_Accumulation
0.00 0.00 0.00 0.00 0.00 0.00 0.00 0.00 0.00 0.00 0.00 0.00 0.00 0.00 0.00 0.00 0.00 0.00 0.00 0.00 0.00 0.00
0.00 0.00 0.00 0.00 0.00 0.00 0.00 0.00 0.00 0.00 0.00 0.00 0.00 0.00 0.00 0.00 0.00 0.00 0.00 0.00 0.00 0.00
0.00 0.00 0.00 0.00 0.00 0.00 0.00 0.00 0.00 0.00 0.00 0.00 0.00 0.00 0.00 0.00 0.00 0.00 0.00 0.00 0.00 0.00
0.00 0.00 0.00 0.00 0.00 0.00 0.00 0.00 0.00 0.00 0.00 0.00 0.00 0.00 0.00 0.00 0.00 0.00 0.00 0.00 0.00 0.00
0.00 0.00 0.00 0.00 0.00 0.00 0.00 0.00 0.00 0.00 0.00 0.00 0.00 0.00 0.00 0.00 0.00 0.00 0.00 0.00 0.00 0.00
0.00 0.00 0.00 0.00 0.00 0.00 0.00 0.00 0.00 0.00 0.00 0.00 0.00 0.00 0.00 0.00 0.00 0.00 0.00 0.00 0.00 0.00
0.00 0.00 0.00 0.00 0.00 0.00 0.00 0.00 0.00 0.00 0.00 0.00 0.00 0.00 0.01 0.01 0.01 0.01 0.02 0.05 0.07 0.02
0.00 0.00 0.00 0.00 0.00 0.00 0.00 0.00 0.00 0.00 0.00 0.00 0.00 0.01 0.00 0.02 0.03 0.09 0.10 0.10 0.11 0.08
0.00 0.00 0.00 0.00 0.00 0.00 0.00 0.00 0.00 0.00 0.00 0.01 0.01 0.03 0.01 0.03 0.14 0.16 0.20 0.14 0.08 0.09
0.00 0.00 0.00 0.00 0.00 0.00 0.00 0.00 0.00 0.00 0.00 0.02 0.06 0.25 0.12 0.17 0.15 0.18 0.16 0.08 0.08 0.06
0.00 0.00 0.00 0.00 0.00 0.00 0.00 0.00 0.01 0.06 0.11 0.09 0.11 0.13 0.11 0.08 0.07 0.06 0.07 0.10 0.08 0.04
0.00 0.00 0.00 0.00 0.00 0.00 0.00 0.01 0.04 0.23 0.35 0.17 0.13 0.09 0.08 0.06 0.05 0.07 0.11 0.13 0.06 0.06
0.00 0.00 0.00 0.00 0.00 0.03 0.11 0.16 0.08 0.07 0.11 0.11 0.13 0.11 0.05 0.06 0.05 0.06 0.04 0.04 0.03 0.04
0.00 0.00 0.00 0.04 0.15 0.21 0.21 0.08 0.02 0.06 0.28 0.25 0.11 0.06 0.06 0.08 0.03 0.03 0.04 0.04 0.04 0.09